Wind_Speed
33 35 37 39 40 38 39 40 39 37 35 34 34 34 35 36 35 33 32 31 32 33 34 34 35 35 34 34 32 32 32 31 29 27 25 28 27 24 23 24 24 23 21
30 35 38 39 40 38 39 36 34 34 35 35 35 36 35 36 36 35 34 34 34 35 35 35 36 36 35 35 34 34 33 33 30 29 25 26 29 27 25 24 23 23 23
33 36 38 39 40 38 36 36 35 35 36 36 37 37 37 35 33 34 33 33 34 35 37 36 35 36 36 36 36 34 34 34 32 31 28 27 28 29 27 26 26 25 25
32 36 39 41 42 41 37 37 37 36 37 35 33 32 32 34 36 33 32 32 32 34 35 37 36 34 35 37 37 34 34 34 32 32 30 30 30 30 29 28 28 26 27
30 33 37 41 42 38 36 38 40 38 34 33 32 32 32 29 28 32 30 30 31 32 32 35 35 34 33 35 37 37 34 34 34 33 33 32 32 32 32 31 29 28 28
29 35 39 41 41 39 37 39 40 39 36 35 35 35 34 33 32 29 30 25 26 28 30 30 31 33 34 35 36 37 37 34 36 34 34 35 34 33 34 33 32 31 30
32 36 41 42 40 38 38 39 39 38 38 38 39 39 38 37 36 37 35 31 29 26 26 29 31 33 34 33 34 34 36 35 36 35 34 37 37 36 37 36 34 33 32
28 32 38 40 39 39 39 41 38 35 36 38 39 40 41 41 40 38 38 37 34 33 30 28 30 32 34 34 34 36 35 37 37 37 37 39 39 39 38 40 39 37 34
30 35 37 40 40 40 41 41 38 35 37 39 39 38 35 33 32 34 33 33 33 33 33 33 32 32 34 35 35 36 38 39 39 39 39 38 39 41 42 42 42 40 38
39 39 40 40 40 43 42 41 41 40 37 37 36 32 34 35 34 33 32 30 30 31 33 33 35 34 34 35 35 35 38 40 41 41 41 40 41 43 46 44 44 41 40
43 43 41 36 37 43 43 41 43 42 39 37 33 33 34 34 32 31 30 28 28 29 29 31 33 33 33 33 32 33 37 39 41 43 43 41 40 43 46 45 43 43 41
42 50 40 39 38 39 42 42 42 40 36 35 34 32 31 32 30 30 29 27 27 28 27 27 29 33 34 34 33 34 35 39 40 42 44 41 41 40 42 42 41 43 41
47 53 42 42 41 37 37 40 38 36 35 34 33 32 33 33 31 29 28 26 28 26 26 27 29 31 34 34 34 33 35 37 42 43 44 43 45 44 43 42 41 41 40
53 43 39 38 40 34 32 30 33 35 36 35 33 35 36 33 30 29 29 27 27 27 26 25 27 29 33 35 34 31 32 36 39 42 45 43 41 46 46 46 44 41 40
42 37 37 39 39 32 25 28 33 36 39 37 36 36 32 30 29 30 28 26 27 27 29 31 30 28 28 29 31 32 31 30 35 42 42 43 42 43 45 46 46 43 40
33 35 38 41 37 29 27 29 33 36 40 38 37 34 31 29 30 31 26 26 25 25 26 29 29 27 26 27 29 29 28 29 32 36 41 44 42 42 42 44 45 44 42
28 30 38 39 35 29 30 32 34 37 39 38 36 33 31 29 31 29 26 26 26 24 25 26 26 26 28 27 27 24 26 28 30 32 36 38 42 46 45 44 44 44 43
21 28 36 36 31 29 34 33 37 35 37 38 35 33 31 30 30 27 27 28 27 27 29 28 27 27 26 25 24 26 28 30 30 33 35 36 39 42 45 46 46 45 43
23 27 29 32 32 31 31 34 36 34 37 36 35 33 31 32 29 28 30 29 27 29 25 25 24 23 22 24 26 29 30 30 31 33 35 36 38 41 41 44 46 45 43
26 26 28 32 27 32 31 38 35 35 38 36 34 32 32 30 29 30 30 30 29 26 26 25 25 24 26 26 27 27 28 29 31 33 35 37 39 40 40 41 42 44 43
27 28 32 32 26 31 33 35 35 36 37 34 32 30 29 31 30 30 29 26 26 25 24 23 25 23 21 22 24 25 25 26 28 30 33 38 38 39 39 39 39 43 46
25 28 31 27 27 29 32 33 33 34 33 30 31 29 31 30 31 30 26 26 25 20 18 14 14 16 19 19 20 20 21 24 27 28 30 35 37 37 38 37 37 42 43
25 28 25 25 27 27 29 29 29 30 29 31 29 30 30 31 32 26 24 24 16 12 11 12 13 13 14 15 13 13 14 16 20 23 27 30 33 35 34 34 37 36 40
26 25 24 24 25 25 26 26 27 27 29 28 28 29 31 30 25 23 21 17 11 10 9 8 9 10 9 12 11 11 15 17 18 21 24 27 30 31 34 36 37 42 24
26 25 23 24 23 23 22 24 26 24 24 25 27 28 24 24 21 17 13 10 9 8 6 6 7 12 13 13 15 17 16 17 19 20 23 26 29 32 36 38 37 33 33
28 25 20 21 20 21 21 23 21 23 22 23 25 23 25 21 16 11 9 8 7 7 7 11 14 10 7 12 13 14 16 19 22 21 24 28 33 35 36 38 35 32 32
Wind_Direction
305 301 301 304 306 310 313 314 312 312 309 306 303 301 300 295 289 282 275 268 268 268 265 262 260 258 253 250 246 242 241 237 236 238 238 249 250 245 237 240 237 242 243
306 302 302 302 302 307 307 306 308 310 308 305 301 297 294 292 290 285 277 270 265 264 263 260 258 257 255 253 248 242 238 238 235 235 235 242 250 247 242 236 237 239 247
304 300 297 299 300 304 308 308 307 309 310 307 304 301 297 294 288 285 284 276 268 264 263 260 256 254 252 250 249 243 240 233 233 234 235 234 243 246 243 240 236 232 240
303 297 298 299 302 304 306 307 311 313 313 312 309 306 294 292 293 294 285 279 276 271 266 262 259 253 249 247 251 248 241 238 232 234 234 236 236 240 241 239 239 236 237
300 294 300 301 304 309 313 314 314 315 315 309 302 303 298 293 296 285 292 286 277 272 269 267 264 259 256 247 246 250 245 242 238 234 237 237 237 236 237 234 237 240 239
299 296 300 301 303 306 310 313 314 313 312 310 306 305 303 299 297 301 286 293 283 275 273 271 269 265 263 258 247 247 246 246 241 237 238 238 238 238 238 235 233 237 237
292 297 296 300 302 305 309 312 309 308 309 308 305 302 302 301 299 295 295 296 292 287 274 269 268 267 262 257 255 249 247 248 245 238 236 238 239 236 237 237 233 233 237
301 301 298 298 302 306 311 313 308 306 306 304 301 299 299 297 295 294 293 293 290 288 280 270 265 264 265 261 256 255 251 248 245 240 236 237 236 237 234 236 233 232 232
307 312 302 301 304 309 314 313 309 312 309 306 303 302 302 299 298 296 293 286 283 281 276 266 261 260 258 259 257 255 255 254 247 243 237 236 236 236 235 233 233 232 230
317 307 304 299 304 307 311 309 308 309 311 307 309 307 306 304 300 295 292 290 285 277 272 267 260 257 253 252 254 255 251 248 248 243 240 236 235 233 234 233 232 231 229
311 305 298 293 300 303 307 306 308 313 313 309 307 308 307 304 298 293 293 288 286 281 275 264 259 255 252 249 247 252 252 246 244 240 238 237 235 233 232 232 232 230 229
304 304 290 288 296 300 302 303 308 312 311 306 304 305 305 302 295 296 295 286 285 282 274 269 261 253 249 250 253 253 252 247 241 236 234 235 234 231 227 228 230 232 229
299 301 282 288 294 292 299 304 306 310 305 302 304 303 303 301 297 297 295 290 287 280 274 267 265 257 253 253 252 251 249 247 240 237 237 233 232 230 228 229 230 231 231
292 286 275 286 287 291 295 304 312 310 305 305 305 306 306 297 298 298 297 292 286 281 276 274 270 263 254 254 252 254 249 246 239 236 235 232 233 229 228 229 230 229 231
280 267 272 278 286 287 293 303 304 312 310 308 308 311 305 303 300 302 297 294 288 287 282 278 276 272 258 253 261 260 251 243 240 233 231 231 229 227 227 228 228 228 230
260 262 271 279 282 283 295 297 297 306 310 308 311 311 306 305 306 303 300 299 297 290 289 285 276 268 261 263 262 254 247 241 237 233 230 228 228 227 225 227 228 227 228
253 264 267 278 276 290 302 294 298 304 307 308 312 309 307 308 307 303 301 298 298 291 291 288 282 273 267 264 257 249 249 242 238 235 229 227 226 226 224 223 226 227 227
270 264 274 276 284 289 290 296 305 306 307 309 310 307 307 307 306 301 299 295 292 292 289 288 278 275 270 262 254 248 245 244 237 234 229 226 225 224 223 223 222 223 226
280 279 273 273 283 281 305 295 300 305 307 308 307 307 308 306 301 299 302 300 295 298 291 286 276 272 262 253 249 249 246 241 238 235 232 224 223 222 220 220 221 220 222
276 279 277 280 285 285 292 296 298 306 307 307 307 309 306 303 304 303 303 301 299 294 291 285 273 264 256 250 248 246 242 240 235 231 228 222 221 219 217 217 217 217 218
277 278 283 288 282 284 290 294 299 303 305 305 307 308 306 307 306 307 306 306 302 298 289 280 275 260 248 248 247 241 235 230 227 225 221 218 216 214 212 213 211 209 210
282 281 285 280 277 282 288 295 299 301 302 305 308 305 306 309 311 308 312 309 304 293 279 275 257 253 249 245 239 236 237 231 223 219 216 214 213 211 207 206 204 206 208
280 285 279 274 277 287 290 296 299 300 303 308 305 307 310 313 310 307 310 309 297 286 280 268 257 250 244 240 225 207 197 197 201 204 206 205 208 205 201 199 198 199 213
275 285 281 278 284 288 294 298 301 304 306 306 309 312 316 315 309 305 309 298 285 285 270 253 240 232 206 177 171 181 179 182 188 195 198 195 196 194 193 193 198 205 226
280 292 275 285 289 293 297 304 306 307 311 314 315 319 317 316 319 317 309 292 290 277 257 206 200 177 176 179 177 179 187 188 186 187 188 182 184 185 187 190 195 197 208
284 287 281 289 293 295 305 309 312 311 313 320 324 320 327 321 323 324 310 305 289 267 207 177 168 161 167 178 184 187 181 173 174 178 176 177 179 179 185 188 189 195 194
Height
5886 5882 5878 5877 5876 5874 5873 5870 5868 5866 5863 5861 5859 5857 5855 5854 5854 5854 5855 5855 5854 5853 5853 5854 5855 5856 5856 5858 5859 5859 5861 5862 5864 5866 5867 5871 5873 5874 5875 5876 5877 5878 5879
5883 5878 5875 5873 5872 5872 5869 5867 5864 5861 5859 5856 5855 5852 5850 5848 5847 5847 5847 5847 5848 5847 5846 5847 5847 5847 5849 5850 5852 5854 5854 5857 5858 5861 5863 5865 5869 5871 5871 5872 5874 5875 5876
5879 5874 5870 5869 5868 5867 5865 5862 5859 5857 5855 5852 5848 5846 5844 5842 5841 5840 5839 5839 5839 5840 5841 5841 5841 5842 5842 5843 5845 5848 5849 5851 5853 5856 5858 5860 5864 5867 5867 5869 5870 5871 5873
5875 5871 5866 5864 5863 5862 5859 5856 5853 5852 5850 5847 5844 5841 5839 5836 5834 5833 5832 5832 5832 5832 5832 5833 5834 5836 5836 5837 5838 5841 5844 5846 5846 5850 5851 5855 5858 5862 5863 5864 5866 5868 5869
5871 5867 5862 5859 5857 5856 5855 5851 5848 5846 5845 5843 5841 5838 5836 5834 5831 5829 5827 5825 5824 5824 5824 5825 5827 5828 5830 5832 5832 5834 5837 5840 5842 5843 5846 5849 5852 5856 5859 5860 5861 5864 5866
5868 5863 5858 5855 5854 5853 5851 5847 5843 5841 5839 5837 5835 5832 5830 5828 5825 5823 5822 5820 5819 5817 5816 5815 5818 5820 5821 5823 5826 5828 5829 5833 5837 5837 5840 5844 5846 5850 5853 5856 5857 5860 5862
5864 5860 5854 5852 5850 5849 5847 5844 5840 5837 5835 5831 5829 5825 5823 5821 5819 5816 5814 5813 5812 5811 5811 5809 5809 5809 5811 5815 5817 5820 5822 5826 5829 5831 5834 5838 5839 5843 5847 5851 5853 5855 5858
5860 5856 5851 5848 5846 5844 5842 5839 5836 5834 5831 5826 5823 5820 5817 5814 5811 5809 5807 5805 5804 5803 5803 5803 5803 5802 5802 5805 5808 5810 5813 5818 5820 5823 5826 5831 5834 5835 5840 5845 5847 5850 5853
5856 5852 5848 5843 5841 5838 5837 5834 5831 5828 5825 5821 5818 5815 5810 5807 5805 5802 5800 5798 5796 5794 5794 5795 5795 5796 5796 5797 5799 5802 5805 5809 5812 5814 5818 5822 5826 5829 5832 5837 5840 5844 5848
5851 5847 5843 5839 5836 5833 5832 5829 5825 5823 5819 5815 5811 5808 5804 5801 5798 5795 5792 5790 5788 5787 5786 5786 5787 5788 5789 5791 5792 5793 5797 5800 5802 5805 5809 5813 5818 5821 5825 5829 5833 5837 5842
5846 5843 5838 5835 5832 5828 5827 5824 5820 5817 5813 5808 5805 5802 5798 5795 5791 5789 5786 5783 5782 5780 5778 5778 5778 5779 5780 5782 5784 5786 5788 5790 5794 5798 5801 5805 5809 5813 5818 5821 5826 5830 5835
5841 5837 5833 5829 5827 5824 5821 5819 5815 5812 5808 5803 5799 5796 5793 5789 5786 5782 5780 5777 5775 5774 5772 5771 5770 5771 5772 5774 5776 5778 5779 5782 5785 5789 5793 5798 5801 5806 5810 5815 5819 5824 5829
5836 5831 5827 5824 5822 5819 5817 5814 5810 5806 5802 5798 5794 5790 5787 5783 5780 5776 5773 5771 5768 5767 5765 5764 5764 5764 5765 5766 5768 5770 5771 5773 5776 5780 5784 5789 5792 5798 5803 5808 5813 5817 5823
5829 5825 5821 5819 5817 5815 5812 5809 5805 5801 5797 5793 5788 5783 5780 5776 5772 5769 5766 5764 5762 5759 5757 5756 5756 5756 5757 5757 5759 5761 5763 5764 5767 5771 5774 5779 5783 5789 5795 5801 5806 5810 5816
5821 5817 5816 5814 5812 5810 5807 5804 5800 5796 5791 5786 5782 5777 5773 5769 5765 5762 5759 5756 5754 5751 5749 5748 5747 5747 5747 5749 5750 5750 5753 5756 5758 5761 5765 5770 5776 5781 5787 5793 5798 5804 5809
5813 5811 5810 5809 5807 5804 5801 5798 5794 5790 5785 5781 5776 5771 5767 5762 5759 5755 5752 5749 5747 5744 5741 5739 5739 5739 5739 5740 5741 5742 5744 5747 5750 5752 5756 5761 5767 5773 5780 5785 5791 5798 5804
5806 5806 5806 5805 5802 5798 5795 5792 5788 5784 5778 5774 5770 5765 5761 5756 5752 5748 5744 5742 5739 5737 5734 5732 5730 5730 5731 5732 5733 5735 5737 5739 5742 5745 5748 5753 5759 5765 5772 5778 5785 5792 5799
5802 5802 5800 5799 5797 5794 5791 5786 5782 5777 5773 5768 5763 5759 5754 5750 5746 5741 5738 5734 5732 5729 5726 5725 5723 5723 5723 5724 5725 5727 5729 5732 5735 5737 5741 5746 5751 5756 5763 5771 5780 5787 5794
5797 5796 5796 5794 5792 5789 5785 5780 5776 5771 5766 5762 5757 5752 5747 5743 5738 5734 5730 5727 5724 5721 5718 5716 5716 5715 5715 5716 5717 5719 5721 5724 5727 5730 5735 5740 5745 5750 5757 5765 5774 5781 5787
5792 5792 5790 5788 5786 5782 5779 5775 5770 5765 5760 5756 5751 5746 5741 5736 5731 5726 5722 5718 5716 5713 5711 5709 5709 5708 5708 5709 5709 5711 5713 5716 5720 5723 5728 5733 5739 5745 5752 5759 5767 5774 5783
5787 5787 5785 5782 5779 5776 5772 5768 5764 5759 5754 5749 5745 5739 5734 5729 5724 5719 5715 5711 5708 5705 5703 5702 5701 5700 5701 5702 5703 5705 5706 5709 5713 5717 5721 5726 5733 5741 5748 5754 5761 5769 5778
5783 5782 5779 5776 5773 5770 5766 5762 5758 5753 5748 5743 5738 5733 5729 5722 5717 5712 5708 5705 5701 5699 5698 5696 5696 5696 5696 5697 5698 5700 5702 5704 5707 5712 5716 5722 5728 5736 5743 5751 5760 5763 5773
5778 5776 5773 5770 5766 5763 5760 5756 5752 5747 5742 5738 5732 5727 5722 5715 5710 5705 5702 5699 5696 5695 5694 5693 5692 5692 5693 5693 5695 5696 5697 5700 5704 5709 5713 5719 5725 5732 5741 5749 5755 5762 5769
5773 5770 5767 5764 5760 5757 5754 5750 5746 5741 5737 5732 5726 5721 5714 5709 5704 5700 5697 5694 5693 5691 5691 5691 5689 5690 5690 5692 5694 5696 5698 5700 5703 5708 5712 5716 5723 5731 5740 5746 5751 5756 5754
5767 5763 5761 5757 5754 5751 5748 5744 5740 5736 5731 5726 5721 5715 5709 5704 5700 5696 5692 5691 5690 5689 5688 5688 5689 5690 5691 5692 5694 5695 5698 5700 5703 5707 5712 5716 5722 5730 5737 5743 5748 5756 5764
5761 5758 5755 5752 5749 5746 5743 5739 5735 5730 5726 5721 5715 5710 5704 5699 5695 5692 5690 5689 5688 5687 5687 5689 5691 5692 5692 5694 5695 5697 5698 5702 5704 5708 5713 5717 5723 5729 5736 5742 5748 5753 5758